Time,TemperatureF,DewpointF,PressureIn,WindDirection,WindDirectionDegrees,WindSpeedMPH,WindSpeedGustMPH,Humidity,HourlyPrecipIn,Conditions,Clouds,dailyrainin,SoftwareType,DateUTC
2013-02-03 00:02:00,60.0,-99.9,30.18,WSW,257,16.0,19.0,-999,-99.99,,,-99.99,,2013-02-03 06:02:00,
2013-02-03 00:11:00,60.0,-99.9,30.18,WSW,258,15.0,17.0,-999,-99.99,,,-99.99,,2013-02-03 06:11:00,
2013-02-03 00:22:00,60.0,-99.9,30.18,West,259,15.0,17.0,-999,-99.99,,,-99.99,,2013-02-03 06:22:00,
2013-02-03 00:32:00,60.0,-99.9,30.18,North,-999,-999.0,-999.0,-999,-99.99,,,-99.99,,2013-02-03 06:32:00,
2013-02-03 00:42:00,60.0,-99.9,30.17,WSW,255,18.0,18.0,-999,-99.99,,,-99.99,,2013-02-03 06:42:00,
2013-02-03 00:52:00,60.0,-99.9,30.17,WSW,256,19.0,20.0,-999,-99.99,,,-99.99,,2013-02-03 06:52:00,
2013-02-03 01:02:00,60.0,-99.9,30.17,West,261,19.0,20.0,-999,-99.99,,,-99.99,,2013-02-03 07:02:00,
2013-02-03 01:11:00,60.0,-99.9,30.17,North,-999,-999.0,-999.0,-999,-99.99,,,-99.99,,2013-02-03 07:11:00,
2013-02-03 01:22:00,60.0,-99.9,30.17,West,270,19.0,20.0,-999,-99.99,,,-99.99,,2013-02-03 07:22:00,
2013-02-03 01:32:00,60.0,-99.9,30.17,West,271,18.0,19.0,-999,-99.99,,,-99.99,,2013-02-03 07:32:00,
2013-02-03 01:42:00,60.0,-99.9,30.17,West,269,17.0,19.0,-999,-99.99,,,-99.99,,2013-02-03 07:42:00,
2013-02-03 01:52:00,60.0,-99.9,30.17,West,273,18.0,19.0,-999,-99.99,,,-99.99,,2013-02-03 07:52:00,
2013-02-03 02:02:00,60.0,-99.9,30.17,West,281,18.0,19.0,-999,-99.99,,,-99.99,,2013-02-03 08:02:00,
2013-02-03 02:11:00,59.0,-99.9,30.18,WNW,294,18.0,20.0,-999,-99.99,,,-99.99,,2013-02-03 08:11:00,
2013-02-03 02:22:00,58.0,-99.9,30.18,NNW,331,20.0,23.0,-999,-99.99,,,-99.99,,2013-02-03 08:22:00,
2013-02-03 02:32:00,58.0,-99.9,30.18,NNW,331,17.0,20.0,-999,-99.99,,,-99.99,,2013-02-03 08:32:00,
2013-02-03 02:42:00,57.0,-99.9,30.18,NNW,332,15.0,16.0,-999,-99.99,,,-99.99,,2013-02-03 08:42:00,
2013-02-03 02:52:00,56.0,-99.9,30.18,NNW,345,17.0,19.0,-999,-99.99,,,-99.99,,2013-02-03 08:52:00,
2013-02-03 03:03:00,56.0,-99.9,30.19,NNW,344,14.0,17.0,-999,-99.99,,,-99.99,,2013-02-03 09:03:00,
2013-02-03 03:11:00,56.0,-99.9,30.19,North,-999,-999.0,-999.0,-999,-99.99,,,-99.99,,2013-02-03 09:11:00,
2013-02-03 03:22:00,56.0,-99.9,30.19,North,-999,-999.0,-999.0,-999,-99.99,,,-99.99,,2013-02-03 09:22:00,
2013-02-03 03:32:00,56.0,-99.9,30.18,North,-999,-999.0,-999.0,-999,-99.99,,,-99.99,,2013-02-03 09:32:00,
2013-02-03 03:42:00,56.0,-99.9,30.19,NNW,346,12.0,13.0,-999,-99.99,,,-99.99,,2013-02-03 09:42:00,
2013-02-03 03:52:00,56.0,-99.9,30.19,North,353,13.0,15.0,-999,-99.99,,,-99.99,,2013-02-03 09:52:00,
2013-02-03 04:01:00,56.0,-99.9,30.19,North,356,13.0,13.0,-999,-99.99,,,-99.99,,2013-02-03 10:01:00,
2013-02-03 04:11:00,56.0,-99.9,30.19,North,-999,-999.0,-999.0,-999,-99.99,,,-99.99,,2013-02-03 10:11:00,
2013-02-03 04:22:00,55.0,-99.9,30.19,North,3,15.0,18.0,-999,-99.99,,,-99.99,,2013-02-03 10:22:00,
2013-02-03 04:32:00,55.0,-99.9,30.19,North,6,16.0,19.0,-999,-99.99,,,-99.99,,2013-02-03 10:32:00,
2013-02-03 04:42:00,55.0,-99.9,30.19,NNE,15,17.0,19.0,-999,-99.99,,,-99.99,,2013-02-03 10:42:00,
2013-02-03 04:53:00,55.0,-99.9,30.19,NNE,22,19.0,21.0,-999,-99.99,,,-99.99,,2013-02-03 10:53:00,
2013-02-03 05:02:00,55.0,-99.9,30.19,NNE,22,19.0,23.0,-999,-99.99,,,-99.99,,2013-02-03 11:02:00,
2013-02-03 05:11:00,55.0,-99.9,30.19,NNE,23,18.0,19.0,-999,-99.99,,,-99.99,,2013-02-03 11:11:00,
2013-02-03 05:22:00,54.0,-99.9,30.19,NNE,21,17.0,19.0,-999,-99.99,,,-99.99,,2013-02-03 11:22:00,
2013-02-03 05:32:00,54.0,-99.9,30.19,NNE,21,16.0,18.0,-999,-99.99,,,-99.99,,2013-02-03 11:32:00,
2013-02-03 05:42:00,54.0,-99.9,30.19,NNE,28,13.0,15.0,-999,-99.99,,,-99.99,,2013-02-03 11:42:00,
2013-02-03 05:52:00,54.0,-99.9,30.20,NNE,21,13.0,14.0,-999,-99.99,,,-99.99,,2013-02-03 11:52:00,
2013-02-03 06:03:00,54.0,-99.9,30.20,NNE,29,14.0,14.0,-999,-99.99,,,-99.99,,2013-02-03 12:03:00,
2013-02-03 06:12:00,54.0,-99.9,30.20,North,-999,-999.0,-999.0,-999,-99.99,,,-99.99,,2013-02-03 12:12:00,
2013-02-03 06:22:00,53.0,-99.9,30.20,NE,43,10.0,11.0,-999,-99.99,,,-99.99,,2013-02-03 12:22:00,
2013-02-03 06:33:00,53.0,-99.9,30.21,NE,37,11.0,12.0,-999,-99.99,,,-99.99,,2013-02-03 12:33:00,
2013-02-03 06:42:00,53.0,-99.9,30.21,NE,36,11.0,12.0,-999,-99.99,,,-99.99,,2013-02-03 12:42:00,
2013-02-03 06:53:00,53.0,-99.9,30.22,NNE,33,10.0,11.0,-999,-99.99,,,-99.99,,2013-02-03 12:53:00,
2013-02-03 07:03:00,53.0,-99.9,30.22,NNE,31,11.0,12.0,-999,-99.99,,,-99.99,,2013-02-03 13:03:00,
2013-02-03 07:12:00,53.0,-99.9,30.22,NE,35,12.0,13.0,-999,-99.99,,,-99.99,,2013-02-03 13:12:00,
2013-02-03 07:22:00,53.0,-99.9,30.23,NNE,33,13.0,15.0,-999,-99.99,,,-99.99,,2013-02-03 13:22:00,
2013-02-03 07:32:00,53.0,-99.9,30.23,NNE,32,13.0,15.0,-999,-99.99,,,-99.99,,2013-02-03 13:32:00,
2013-02-03 07:42:00,53.0,-99.9,30.24,NNE,31,13.0,15.0,-999,-99.99,,,-99.99,,2013-02-03 13:42:00,
2013-02-03 07:52:00,53.0,-99.9,30.24,NE,35,14.0,15.0,-999,-99.99,,,-99.99,,2013-02-03 13:52:00,
2013-02-03 08:03:00,53.0,-99.9,30.24,NE,41,13.0,15.0,-999,-99.99,,,-99.99,,2013-02-03 14:03:00,
2013-02-03 08:12:00,53.0,-99.9,30.25,NE,46,13.0,14.0,-999,-99.99,,,-99.99,,2013-02-03 14:12:00,
2013-02-03 08:22:00,53.0,-99.9,30.25,NE,42,13.0,14.0,-999,-99.99,,,-99.99,,2013-02-03 14:22:00,
2013-02-03 08:32:00,52.0,-99.9,30.25,NE,41,11.0,12.0,-999,-99.99,,,-99.99,,2013-02-03 14:32:00,
2013-02-03 08:43:00,53.0,-99.9,30.25,NE,44,11.0,13.0,-999,-99.99,,,-99.99,,2013-02-03 14:43:00,
2013-02-03 08:52:00,53.0,-99.9,30.25,NE,45,8.0,9.0,-999,-99.99,,,-99.99,,2013-02-03 14:52:00,
2013-02-03 09:03:00,53.0,-99.9,30.25,NE,48,7.0,9.0,-999,-99.99,,,-99.99,,2013-02-03 15:03:00,
2013-02-03 09:12:00,53.0,-99.9,30.25,NE,39,6.0,7.0,-999,-99.99,,,-99.99,,2013-02-03 15:12:00,
2013-02-03 09:23:00,54.0,-99.9,30.26,NE,35,6.0,7.0,-999,-99.99,,,-99.99,,2013-02-03 15:23:00,
2013-02-03 09:33:00,53.0,-99.9,30.26,NNE,30,6.0,7.0,-999,-99.99,,,-99.99,,2013-02-03 15:33:00,
2013-02-03 09:42:00,53.0,-99.9,30.26,NNE,27,7.0,8.0,-999,-99.99,,,-99.99,,2013-02-03 15:42:00,
2013-02-03 09:52:00,53.0,-99.9,30.26,NNE,28,6.0,7.0,-999,-99.99,,,-99.99,,2013-02-03 15:52:00,
2013-02-03 10:03:00,53.0,-99.9,30.26,NNE,29,6.0,7.0,-999,-99.99,,,-99.99,,2013-02-03 16:03:00,
2013-02-03 10:12:00,54.0,-99.9,30.25,NE,38,5.0,6.0,-999,-99.99,,,-99.99,,2013-02-03 16:12:00,
2013-02-03 10:22:00,55.0,-99.9,30.25,NNE,32,5.0,6.0,-999,-99.99,,,-99.99,,2013-02-03 16:22:00,
2013-02-03 10:33:00,55.0,-99.9,30.25,NNE,33,4.0,5.0,-999,-99.99,,,-99.99,,2013-02-03 16:33:00,
2013-02-03 10:42:00,55.0,-99.9,30.25,NNE,30,3.0,4.0,-999,-99.99,,,-99.99,,2013-02-03 16:42:00,
2013-02-03 10:52:00,55.0,-99.9,30.25,NNE,32,3.0,5.0,-999,-99.99,,,-99.99,,2013-02-03 16:52:00,
2013-02-03 11:03:00,56.0,-99.9,30.25,NNE,26,3.0,5.0,-999,-99.99,,,-99.99,,2013-02-03 17:03:00,
2013-02-03 11:12:00,56.0,-99.9,30.25,NNE,32,3.0,5.0,-999,-99.99,,,-99.99,,2013-02-03 17:12:00,
2013-02-03 11:22:00,58.0,-99.9,30.25,ENE,65,2.0,4.0,-999,-99.99,,,-99.99,,2013-02-03 17:22:00,
2013-02-03 11:32:00,58.0,-99.9,30.24,East,101,2.0,3.0,-999,-99.99,,,-99.99,,2013-02-03 17:32:00,
2013-02-03 11:42:00,59.0,-99.9,30.24,NW,319,1.0,3.0,-999,-99.99,,,-99.99,,2013-02-03 17:42:00,
2013-02-03 11:53:00,62.0,-99.9,30.23,SW,225,1.0,2.0,-999,-99.99,,,-99.99,,2013-02-03 17:53:00,
2013-02-03 12:03:00,58.0,-99.9,30.23,SW,218,3.0,6.0,-999,-99.99,,,-99.99,,2013-02-03 18:03:00,
2013-02-03 12:12:00,58.0,-99.9,30.22,SW,230,5.0,6.0,-999,-99.99,,,-99.99,,2013-02-03 18:12:00,
2013-02-03 12:23:00,58.0,-99.9,30.22,WSW,237,5.0,8.0,-999,-99.99,,,-99.99,,2013-02-03 18:23:00,
2013-02-03 12:33:00,58.0,-99.9,30.21,SSW,211,5.0,6.0,-999,-99.99,,,-99.99,,2013-02-03 18:33:00,
2013-02-03 12:42:00,58.0,-99.9,30.20,SSW,210,6.0,7.0,-999,-99.99,,,-99.99,,2013-02-03 18:42:00,
2013-02-03 12:52:00,58.0,-99.9,30.20,SSW,212,4.0,6.0,-999,-99.99,,,-99.99,,2013-02-03 18:52:00,
2013-02-03 13:03:00,59.0,-99.9,30.19,SW,222,6.0,8.0,-999,-99.99,,,-99.99,,2013-02-03 19:03:00,
2013-02-03 13:11:00,58.0,-99.9,30.19,SW,219,7.0,9.0,-999,-99.99,,,-99.99,,2013-02-03 19:11:00,
2013-02-03 13:22:00,59.0,-99.9,30.19,SW,218,7.0,9.0,-999,-99.99,,,-99.99,,2013-02-03 19:22:00,
2013-02-03 13:33:00,58.0,-99.9,30.18,SSW,211,7.0,9.0,-999,-99.99,,,-99.99,,2013-02-03 19:33:00,
2013-02-03 13:42:00,58.0,-99.9,30.18,SSW,208,8.0,9.0,-999,-99.99,,,-99.99,,2013-02-03 19:42:00,
2013-02-03 13:52:00,58.0,-99.9,30.17,SSW,211,9.0,10.0,-999,-99.99,,,-99.99,,2013-02-03 19:52:00,
2013-02-03 14:02:00,58.0,-99.9,30.17,SW,214,9.0,10.0,-999,-99.99,,,-99.99,,2013-02-03 20:02:00,
2013-02-03 14:12:00,59.0,-99.9,30.17,SW,217,9.0,11.0,-999,-99.99,,,-99.99,,2013-02-03 20:12:00,
2013-02-03 14:22:00,60.0,-99.9,30.16,SW,228,9.0,11.0,-999,-99.99,,,-99.99,,2013-02-03 20:22:00,
2013-02-03 14:33:00,60.0,-99.9,30.16,SW,225,10.0,12.0,-999,-99.99,,,-99.99,,2013-02-03 20:33:00,
2013-02-03 14:42:00,60.0,-99.9,30.16,SW,234,10.0,12.0,-999,-99.99,,,-99.99,,2013-02-03 20:42:00,
2013-02-03 14:52:00,59.0,-99.9,30.15,SW,229,10.0,11.0,-999,-99.99,,,-99.99,,2013-02-03 20:52:00,
2013-02-03 15:04:00,59.0,-99.9,30.15,SW,231,11.0,12.0,-999,-99.99,,,-99.99,,2013-02-03 21:04:00,
2013-02-03 15:11:00,59.0,-99.9,30.15,SW,229,9.0,10.0,-999,-99.99,,,-99.99,,2013-02-03 21:11:00,
2013-02-03 15:22:00,60.0,-99.9,30.15,WSW,239,9.0,11.0,-999,-99.99,,,-99.99,,2013-02-03 21:22:00,
2013-02-03 15:33:00,59.0,-99.9,30.14,WSW,240,11.0,12.0,-999,-99.99,,,-99.99,,2013-02-03 21:33:00,
2013-02-03 15:42:00,60.0,-99.9,30.14,WSW,244,11.0,12.0,-999,-99.99,,,-99.99,,2013-02-03 21:42:00,
2013-02-03 15:52:00,60.0,-99.9,30.15,WSW,246,11.0,13.0,-999,-99.99,,,-99.99,,2013-02-03 21:52:00,
2013-02-03 16:02:00,60.0,-99.9,30.14,WSW,244,11.0,13.0,-999,-99.99,,,-99.99,,2013-02-03 22:02:00,
2013-02-03 16:11:00,60.0,-99.9,30.14,WSW,243,12.0,13.0,-999,-99.99,,,-99.99,,2013-02-03 22:11:00,
2013-02-03 16:22:00,60.0,-99.9,30.14,SW,233,12.0,14.0,-999,-99.99,,,-99.99,,2013-02-03 22:22:00,
2013-02-03 16:32:00,60.0,-99.9,30.14,WSW,238,12.0,13.0,-999,-99.99,,,-99.99,,2013-02-03 22:32:00,
2013-02-03 16:42:00,60.0,-99.9,30.14,WSW,242,12.0,13.0,-999,-99.99,,,-99.99,,2013-02-03 22:42:00,
2013-02-03 16:52:00,60.0,-99.9,30.14,North,-999,-999.0,-999.0,-999,-99.99,,,-99.99,,2013-02-03 22:52:00,
2013-02-03 17:02:00,60.0,-99.9,30.14,WSW,255,15.0,17.0,-999,-99.99,,,-99.99,,2013-02-03 23:02:00,
2013-02-03 17:12:00,60.0,-99.9,30.14,WSW,254,16.0,17.0,-999,-99.99,,,-99.99,,2013-02-03 23:12:00,
2013-02-03 17:22:00,60.0,-99.9,30.13,WSW,253,15.0,16.0,-999,-99.99,,,-99.99,,2013-02-03 23:22:00,
2013-02-03 17:33:00,59.0,-99.9,30.13,WSW,254,15.0,16.0,-999,-99.99,,,-99.99,,2013-02-03 23:33:00,
2013-02-03 17:42:00,60.0,-99.9,30.13,WSW,251,15.0,17.0,-999,-99.99,,,-99.99,,2013-02-03 23:42:00,
2013-02-03 17:52:00,60.0,-99.9,30.13,WSW,251,15.0,16.0,-999,-99.99,,,-99.99,,2013-02-03 23:52:00,
2013-02-03 18:02:00,60.0,-99.9,30.13,WSW,257,16.0,18.0,-999,-99.99,,,-99.99,,2013-02-04 00:02:00,
2013-02-03 18:11:00,60.0,-99.9,30.13,North,-999,-999.0,-999.0,-999,-99.99,,,-99.99,,2013-02-04 00:11:00,
2013-02-03 18:22:00,59.0,-99.9,30.13,North,-999,-999.0,-999.0,-999,-99.99,,,-99.99,,2013-02-04 00:22:00,
2013-02-03 18:32:00,59.0,-99.9,30.13,WSW,257,14.0,15.0,-999,-99.99,,,-99.99,,2013-02-04 00:32:00,
2013-02-03 18:42:00,60.0,-99.9,30.13,WSW,257,13.0,14.0,-999,-99.99,,,-99.99,,2013-02-04 00:42:00,
2013-02-03 18:52:00,60.0,-99.9,30.13,West,264,13.0,15.0,-999,-99.99,,,-99.99,,2013-02-04 00:52:00,
2013-02-03 19:01:00,60.0,-99.9,30.13,West,262,14.0,15.0,-999,-99.99,,,-99.99,,2013-02-04 01:01:00,
2013-02-03 19:11:00,59.0,-99.9,30.13,West,265,13.0,16.0,-999,-99.99,,,-99.99,,2013-02-04 01:11:00,
2013-02-03 19:22:00,59.0,-99.9,30.13,West,271,14.0,15.0,-999,-99.99,,,-99.99,,2013-02-04 01:22:00,
2013-02-03 19:32:00,59.0,-99.9,30.13,North,-999,-999.0,-999.0,-999,-99.99,,,-99.99,,2013-02-04 01:32:00,
2013-02-03 19:42:00,59.0,-99.9,30.13,West,273,16.0,17.0,-999,-99.99,,,-99.99,,2013-02-04 01:42:00,
2013-02-03 19:52:00,59.0,-99.9,30.13,West,266,17.0,19.0,-999,-99.99,,,-99.99,,2013-02-04 01:52:00,
2013-02-03 20:02:00,60.0,-99.9,30.13,West,268,18.0,19.0,-999,-99.99,,,-99.99,,2013-02-04 02:02:00,
2013-02-03 20:11:00,60.0,-99.9,30.13,West,268,18.0,19.0,-999,-99.99,,,-99.99,,2013-02-04 02:11:00,
2013-02-03 20:22:00,60.0,-99.9,30.14,West,268,16.0,17.0,-999,-99.99,,,-99.99,,2013-02-04 02:22:00,
2013-02-03 20:32:00,60.0,-99.9,30.14,West,271,16.0,18.0,-999,-99.99,,,-99.99,,2013-02-04 02:32:00,
2013-02-03 20:42:00,60.0,-99.9,30.14,West,271,16.0,18.0,-999,-99.99,,,-99.99,,2013-02-04 02:42:00,
2013-02-03 20:52:00,60.0,-99.9,30.13,West,277,13.0,15.0,-999,-99.99,,,-99.99,,2013-02-04 02:52:00,
2013-02-03 21:02:00,59.0,-99.9,30.13,West,278,13.0,14.0,-999,-99.99,,,-99.99,,2013-02-04 03:02:00,
2013-02-03 21:11:00,59.0,-99.9,30.13,West,275,15.0,15.0,-999,-99.99,,,-99.99,,2013-02-04 03:11:00,
2013-02-03 21:21:00,59.0,-99.9,30.14,West,268,13.0,15.0,-999,-99.99,,,-99.99,,2013-02-04 03:21:00,
2013-02-03 21:32:00,59.0,-99.9,30.14,West,272,14.0,15.0,-999,-99.99,,,-99.99,,2013-02-04 03:32:00,
2013-02-03 21:42:00,59.0,-99.9,30.14,West,271,13.0,16.0,-999,-99.99,,,-99.99,,2013-02-04 03:42:00,
2013-02-03 21:52:00,59.0,-99.9,30.14,West,267,13.0,15.0,-999,-99.99,,,-99.99,,2013-02-04 03:52:00,
2013-02-03 22:02:00,59.0,-99.9,30.14,West,267,13.0,14.0,-999,-99.99,,,-99.99,,2013-02-04 04:02:00,
2013-02-03 22:11:00,59.0,-99.9,30.14,West,264,13.0,14.0,-999,-99.99,,,-99.99,,2013-02-04 04:11:00,
2013-02-03 22:22:00,59.0,-99.9,30.14,West,264,13.0,15.0,-999,-99.99,,,-99.99,,2013-02-04 04:22:00,
2013-02-03 22:32:00,59.0,-99.9,30.14,West,265,14.0,15.0,-999,-99.99,,,-99.99,,2013-02-04 04:32:00,
2013-02-03 22:42:00,59.0,-99.9,30.14,West,270,14.0,15.0,-999,-99.99,,,-99.99,,2013-02-04 04:42:00,
2013-02-03 22:52:00,59.0,-99.9,30.14,West,273,14.0,15.0,-999,-99.99,,,-99.99,,2013-02-04 04:52:00,
2013-02-03 23:03:00,59.0,-99.9,30.13,WNW,282,14.0,15.0,-999,-99.99,,,-99.99,,2013-02-04 05:03:00,
2013-02-03 23:12:00,59.0,-99.9,30.13,WNW,285,14.0,15.0,-999,-99.99,,,-99.99,,2013-02-04 05:12:00,
2013-02-03 23:22:00,59.0,-99.9,30.12,WNW,284,14.0,15.0,-999,-99.99,,,-99.99,,2013-02-04 05:22:00,
2013-02-03 23:33:00,59.0,-99.9,30.12,North,-999,-999.0,-999.0,-999,-99.99,,,-99.99,,2013-02-04 05:33:00,
2013-02-03 23:42:00,59.0,-99.9,30.12,WNW,283,14.0,15.0,-999,-99.99,,,-99.99,,2013-02-04 05:42:00,
2013-02-03 23:52:00,59.0,-99.9,30.11,WNW,284,13.0,14.0,-999,-99.99,,,-99.99,,2013-02-04 05:52:00,